Regional Weather Roundup
Issued by NWS

Home | Current Version | Previous Version | Text Only | Print | Product List | Glossary On
Versions: 1 2 3 4 5 6 7 8 9 10 11 12 13 14 15 16 17 18 19 20 21 22 23 24 25 26 27 28 29 30 31 32 33 34 35 36 37 38 39 40 41 42 43 44 45 46 47 48 49 50
315
ASUS44 KEWX 250211
RWRTX
SOUTH TEXAS REGIONAL WEATHER ROUNDUP
NATIONAL WEATHER SERVICE AUSTIN/SAN ANTONIO TX
900 PM CDT SUN JUL 24 2016

NOTE: "FAIR" INDICATED FEW OR NO CLOUDS BELOW 12,000 FEET WITH NO
SIGNIFICANT WEATHER AND/OR OBSTRUCTIONS TO VISIBILITY.

* - THESE STATIONS ARE NOT NWS OR FAA STATIONS...AND ARE NOT SUBJECT
    TO NWS AND FAA QUALITY CONTROL.

TXZ171-172-183>190-250300-
TEXAS HILL COUNTRY AND EDWARDS PLATEAU

CITY           SKY/WX    TMP DP  RH WIND       PRES   REMARKS
JUNCTION       CLEAR     93  62  35 SE10      29.91R HX  93
*LLANO         CLEAR     93  66  40 SE7       29.93R HX  96
BURNET         CLEAR     90  65  43 SE7       29.94R HX  92
*HORSESHOE BAY CLEAR     91  65  43 SE5       29.91S HX  92
*KERRVILLE     CLEAR     89  67  48 E6        29.93S HX  92
*FREDERICKSBRG CLEAR     88  61  40 CALM      29.95R
*ROCKSPRINGS   MOCLDY    90  64  43 SE8       29.97R HX  91
*BOERNE STAGE  CLEAR     88  64  45 SE3       29.94R
*CASTROVILLE   CLEAR     92  62  36 E6        29.89R HX  93
HONDO          CLEAR     93  65  39 E9        29.89R HX  95
*UVALDE        CLEAR     92  66  43 E6        29.87R HX  94
DEL RIO        CLEAR     98  62  30 E13       29.81R HX  99
LAUGHLIN AFB   CLEAR     97  64  33 SE13      29.83R HX  99
CARRIZO SPRGS  CLEAR     97  63  32 E7        29.80R HX  98
*EAGLE PASS    CLEAR     97  63  32 E9        29.81S HX  98
$$

TXZ173-191>194-202-209-217>225-228-250300-
CENTRAL AND SOUTH CENTRAL TEXAS

CITY           SKY/WX    TMP DP  RH WIND       PRES   REMARKS
GEORGETOWN     CLEAR     93  66  40 SE5       29.90R HX  96
AUSTIN/BERGSTM MOCLDY    92  69  47 S6        29.88R HX  97
AUSTIN/MABRY   PTCLDY    93  69  45 SE3       29.90R HX  98
*AUSTIN/EXEC     N/A     90  68  48 SE5       29.90R HX  93
*LAGO VISTA    PTCLDY    90  65  44 SE3       29.93S HX  92
SAN MARCOS     CLOUDY    91  70  49 SE9       29.91R HX  97
NEW BRAUNFELS  PTCLDY    92  68  45 SE15      29.88R HX  96
RANDOLPH AFB   CLEAR     91  70  50 SE12      29.89R HX  96
PT SAN ANTONIO PTCLDY    94  69  43 SE15G21   29.87R HX  99
SAN ANTONIO    PTCLDY    93  68  43 SE13      29.89R HX  97
STINSON FIELD  PTCLDY    93  69  45 SE14      29.86R HX  98
*PLEASANTON    CLEAR     92  64  39 SE14G21   29.87R HX  94
*LA GRANGE       N/A     91  75  60 SE8       29.89R HX 101
*GIDDINGS      PTCLDY    89  72  57 SE13      29.94R HX  95
*GONZALES      CLEAR     90  73  56 S12G18    29.89R HX  98
$$

TXZ163>164-176>182-195>201-210>213-226-227-235-250300-
SOUTHEAST TEXAS

CITY           SKY/WX    TMP DP  RH WIND       PRES   REMARKS
COLLEGE STN    CLEAR     91  73  55 S10       29.90R HX  99
*BRYAN         CLEAR     86  69  56 NE3       29.91R HX  90
*CALDWELL      CLEAR     90  70  51 SE12      29.93R HX  95
*CROCKETT      CLEAR     88  73  62 CALM      29.94R HX  96
*BRENHAM       CLEAR     88  74  62 SE7       29.92R HX  97
HUNTSVILLE     CLEAR     92  70  48 VRB5      29.92R HX  97
CONROE         CLOUDY    89  75  63 S12       29.92R HX  99
HOUSTON BUSH   CLOUDY    89  73  59 S8        29.91R HX  97
HOUSTON HOBBY  CLOUDY    87  75  67 S9        29.92R HX  96
*HOUSTON SW AP CLOUDY    83  75  76 S3        29.93R HX  91
PEARLAND       CLOUDY    89  75  63 S6        29.93R HX  99
HOUSTON HOOKS  CLOUDY    88  75  65 S8        29.91R HX  97
ELLINGTON FLD  MOCLDY    88  73  62 SE8       29.92R HX  96
SUGAR LAND     CLOUDY    84  74  71 S9        29.92R HX  91
*HOUSTON EXEC  CLOUDY    82  75  78 S7        29.93R
*CLEVELAND MUN NOT AVBL
*WHARTON       PTCLDY    85  74  71 S9        29.93R HX  92
*COLUMBUS      FAIR      82  75  78 SE6       29.91R
*EAGLE LAKE    CLEAR     83  76  80 S5        29.91R HX  91
$$

TXZ214>216-236>238-250300-
THE UPPER TEXAS COAST

CITY           SKY/WX    TMP DP  RH WIND       PRES   REMARKS
*ORANGE        CLOUDY    83  74  75 CALM      29.95R HX  90
PORT ARTHUR    CLOUDY    83  77  82 S3        29.93R HX  92
GALVESTON      CLOUDY    86  78  77 S12       29.93S HX  98
ANGLETON       CLOUDY    86  77  74 S8        29.92R HX  97
*BAY CITY      PTCLDY    84  77  79 SE3       29.93R HX  94
PALACIOS       PTCLDY    86  76  71 S9        29.92R HX  96
$$

TXZ229>234-239>247-250300-
TEXAS COASTAL BEND AND RIO GRANDE PLAINS

CITY           SKY/WX    TMP DP  RH WIND       PRES   REMARKS
VICTORIA       PTCLDY    85  74  69 S12       29.91R HX  92
*BEEVILLE      PTCLDY    86  76  70 SE12G18   29.90R HX  96
ROCKPORT       PTCLDY    86  76  71 SE13      29.89S HX  96
*PORT ARANSAS  MOCLDY    85  79  82 SE12G18   29.90S HX  98
*PORT LAVACA   PTCLDY    84  78  82 SE9       29.91R HX  95
*INGLESIDE     PTCLDY    86  78  76 SE14      29.90R HX  98
CORPUS CHRISTI MOCLDY    85  76  74 SE13      29.89R HX  94
CORPUS NAS     MOCLDY    85  79  82 SE17G23   29.89S HX  98
*ROBSTOWN      CLEAR     86  76  71 SE16G23   29.90R HX  96
ALICE          CLEAR     86  72  62 SE15G22   29.88R HX  92
KINGSVILLE NAS MOCLDY    85  79  82 SE12      29.88R HX  98
COTULLA        PTCLDY    95  69  42 SE20G31   29.84R HX 100
*FAITH RANCH   CLEAR     99  63  30 E10G16    29.81R HX 100
LAREDO         CLEAR     96  71  44 E21       29.81R HX 103
$$

TXZ248>255-250300-
DEEP SOUTH TEXAS

CITY           SKY/WX    TMP DP  RH WIND       PRES   REMARKS
BROWNSVILLE    CLEAR     85  77  77 SE14      29.90R HX  95
PORT ISABEL    PTCLDY    85  77  77 SE17      29.89R HX  95
*SOUTH PADRE     N/A     86  79  79 SE13      29.91R HX  99
HARLINGEN      CLEAR     86  75  69 SE17      29.88R HX  95
*HEBBRONVILLE  CLEAR     90  72  54 SE18      29.88R HX  97
MCALLEN        CLEAR     90  73  57 SE22      29.87R HX  98
*WESLACO       CLEAR     84   1   4 SE14G21   29.87R
FALFURRIAS     CLEAR     87  73  61 SE12G18   29.87R HX  95
EDINBURG       CLEAR     90  70  51 SE15G21   29.87R HX  95
*ZAPATA        CLEAR     94  65  37 SE10G17   29.82R HX  97
$$

TXZ213>215-236>238-242>244-246-247-251-254-255-250300-
CMAN STATIONS

STATION/POSITION TIME  TEMP    WIND        PRES    WAVE
                       AIR SEA DIR/SP/G            HT/PER
                 (UTC) (F)     (DEG/KT/KT) (MB)    (FT/S)
SABINE PASS      0100   87 91  180/  5/  8   N/A
SEA RIM ST PARK  0200   86     190/  7/  9 1014.0
NORTH JETTY/GLS  0100   87 90                N/A
EAGLE POINT      0100   88 85  190/ 11/ 13   N/A
MORGANS POINT    0100   89 90  180/  8/ 13   N/A
PORT ARANSAS     0200   85 89  130/ 17/ 18 1012.6
MALAQUITE BEACH  0100   85 89  120/ 18/ 20   N/A
BAFFIN BAY       0100   85 90  140/ 16/ 21   N/A
PORT ISABEL      0100   86 89  170/  7/ 11   N/A
$$

GMZ080-GMZ150>470-250300-
OFFSHORE BUOY REPORTS

STATION/POSITION TIME  TEMP    WIND        PRES    WAVE
                       AIR SEA DIR/SP/G            HT/PER
                 (UTC) (F)     (DEG/KT/KT) (MB)    (FT/S)
20 E GALVESTON   0150   87 90  180/ 10/ 12 1013.4    2/ 4
90 E PT ARANSAS  0150   86 87  130/ 10/ 12 1013.2    2/ 4
35 NE PT MANSFLD 0150   85 85  160/ 14/ 16 1012.0    2/ 5
200 E PT ISABEL  0150   86 87  180/  4/  6 1014.2    2/ 5
$$




USA.gov is the U.S. government's official web portal to all federal, state and local government web resources and services.